FW8290 Weather Reports


Display with metric or nautical units.
time (UTC)temp
F
wind
direction
speed
MPH
gust
MPH
rain 1hr
in
rain 24hr
in
rain mn
in
humidity
%
barometer
mb
20260507010050 65 197 0.0 2.0 0.00 0.10 0.10 88 1009.4
20260507004556 65 0 0.0 3.0 0.00 0.10 0.10 87 1009.5
20260507003051 66 0 0.0 3.0 0.00 0.10 0.10 87 1009.6
20260507001549 66 0 1.0 3.0 0.00 0.10 0.10 86 1009.2
20260507000053 66 0 0.0 3.0 0.00 0.10 0.10 86 1009.0
20260506234555 66 0 0.0 3.0 0.00 0.10 0.10 85 1008.8
20260506233052 67 0 1.0 3.0 0.00 0.10 0.10 85 1008.9
20260506231551 67 0 0.0 5.0 0.00 0.10 0.10 84 1009.1
20260506230055 67 258 1.0 6.0 0.00 0.10 0.10 83 1008.6
20260506224601 67 0 2.0 8.0 0.00 0.10 0.10 83 1008.9
20260506223049 67 225 4.0 12.0 0.00 0.10 0.10 83 1008.8
20260506221558 68 193 1.0 4.0 0.00 0.10 0.10 83 1008.8
20260506220052 68 177 4.0 10.0 0.00 0.10 0.10 82 1008.3
20260506214607 68 238 2.0 10.0 0.00 0.10 0.10 82 1008.6
20260506213054 68 201 3.0 9.0 0.00 0.10 0.10 84 1008.4
20260506211613 67 180 2.0 7.0 0.00 0.10 0.10 84 1008.4
20260506210051 68 0 1.0 13.0 0.00 0.10 0.10 82 1008.1
20260506204559 68 160 3.0 8.0 0.00 0.10 0.10 85 1008.1
20260506203052 66 171 1.0 6.0 0.00 0.10 0.10 86 1008.2
20260506201552 66 246 2.0 8.0 0.00 0.10 0.10 86 1008.1
20260506200051 66 176 3.0 13.0 0.00 0.10 0.10 86 1008.1
20260506194600 65 15 3.0 11.0 0.00 0.10 0.10 88 1008.4
20260506193057 64 246 0.0 10.0 0.00 0.10 0.10 89 1008.6
20260506191551 63 209 3.0 13.0 0.00 0.10 0.10 89 1008.7
20260506190052 63 208 1.0 7.0 0.00 0.10 0.10 90 1008.8
20260506184551 63 238 2.0 10.0 0.00 0.10 0.10 90 1009.0
20260506183059 63 217 2.0 8.0 0.00 0.10 0.10 91 1009.0
20260506181551 62 273 3.0 11.0 0.00 0.10 0.10 91 1009.2
20260506180055 62 169 1.0 8.0 0.00 0.10 0.10 92 1009.2
20260506174553 62 186 1.0 7.0 0.00 0.10 0.10 93 1009.3
20260506173051 61 171 1.0 7.0 0.00 0.10 0.10 93 1009.5
20260506171559 61 214 3.0 9.0 0.00 0.10 0.10 93 1009.5
20260506170052 61 257 2.0 7.0 0.02 0.10 0.10 93 1009.6
20260506164558 61 215 0.0 9.0 0.04 0.10 0.10 93 1009.6
20260506163103 61 169 3.0 8.0 0.05 0.10 0.10 93 1009.8
20260506161545 61 184 3.0 9.0 0.06 0.10 0.10 94 1010.0
20260506160053 61 106 2.0 7.0 0.05 0.08 0.08 93 1010.0
20260506154610 61 213 2.0 5.0 0.05 0.06 0.06 91 1010.6
20260506153048 61 0 0.0 4.0 0.05 0.05 0.05 91 1010.8
20260506151548 61 90 1.0 12.0 0.04 0.04 0.04 89 1010.8
20260506150056 62 246 1.0 9.0 0.03 0.03 0.03 87 1010.3
20260506144602 63 197 3.0 11.0 0.01 0.01 0.01 85 1010.6
20260506143051 63 252 1.0 7.0 0.00 0.00 0.00 83 1010.7
20260506141550 64 132 2.0 9.0 0.00 0.00 0.00 81 1010.4
20260506140058 65 253 3.0 12.0 0.00 0.00 0.00 78 1010.6
20260506134553 66 182 3.0 13.0 0.00 0.00 0.00 76 1010.4
20260506133057 65 223 2.0 10.0 0.00 0.00 0.00 78 1010.2
20260506131552 65 217 3.0 13.0 0.00 0.00 0.00 78 1010.3
20260506130053 65 158 3.0 13.0 0.00 0.00 0.00 77 1010.4
20260506124554 65 252 1.0 12.0 0.00 0.00 0.00 79 1010.4
20260506123054 65 100 3.0 12.0 0.00 0.00 0.00 78 1010.8
20260506121553 65 201 4.0 13.0 0.00 0.00 0.00 78 1010.4
20260506120052 65 204 2.0 10.0 0.00 0.00 0.00 78 1010.4
20260506114558 65 130 5.0 14.0 0.00 0.00 0.00 79 1010.2
20260506113053 64 218 1.0 8.0 0.00 0.00 0.00 79 1010.1
20260506111551 64 223 1.0 11.0 0.00 0.00 0.00 79 1010.1
20260506110050 64 173 2.0 12.0 0.00 0.00 0.00 80 1010.1
20260506104556 64 200 3.0 13.0 0.00 0.00 0.00 79 1010.0
20260506103057 64 159 2.0 10.0 0.00 0.00 0.00 80 1010.1
20260506101552 64 152 4.0 10.0 0.00 0.00 0.00 80 1009.9
20260506100051 64 214 1.0 8.0 0.00 0.00 0.00 80 1009.9
20260506094547 64 198 4.0 10.0 0.00 0.00 0.00 79 1009.9
20260506093048 65 123 2.0 7.0 0.00 0.00 0.00 78 1009.9
20260506091554 65 37 1.0 10.0 0.00 0.00 0.00 77 1010.1
20260506090050 66 0 2.0 9.0 0.00 0.00 0.00 76 1009.9
20260506084554 66 245 3.0 16.0 0.00 0.00 0.00 76 1010.0
20260506083058 66 195 3.0 8.0 0.00 0.00 0.00 76 1009.9
20260506081552 66 196 1.0 12.0 0.00 0.00 0.00 76 1010.0
20260506073054 66 200 0.0 9.0 0.00 0.00 0.00 76 1010.2
20260506071551 66 0 0.0 8.0 0.00 0.00 0.00 76 1010.3
20260506061555 67 225 2.0 5.0 0.00 0.00 0.00 74 1010.8
20260506044557 68 191 0.0 8.0 0.00 0.00 0.00 66 1011.3
20260506043044 68 0 1.0 8.0 0.00 0.00 0.00 65 1011.3
20260506041553 68 0 0.0 5.0 0.00 0.00 0.00 64 1011.3
20260506040050 69 0 1.0 5.0 0.00 0.00 0.00 64 1011.2
20260506034547 69 0 1.0 5.0 0.00 0.00 0.00 63 1011.2
20260506033052 69 0 0.0 3.0 0.00 0.00 0.00 63 1011.1
20260506031551 69 184 0.0 4.0 0.00 0.00 0.00 62 1011.0
20260506030059 69 184 1.0 4.0 0.00 0.00 0.00 62 1011.1
20260506024552 70 204 1.0 4.0 0.00 0.00 0.00 62 1011.2
20260506023058 70 0 0.0 4.0 0.00 0.00 0.00 60 1011.4
20260506021555 70 0 0.0 5.0 0.00 0.00 0.00 60 1011.3
20260506020049 71 29 0.0 3.0 0.00 0.00 0.00 58 1011.1
20260506014551 71 245 0.0 6.0 0.00 0.00 0.00 56 1010.9
20260506013048 72 100 0.0 5.0 0.00 0.00 0.00 56 1010.9
20260506011548 72 94 1.0 5.0 0.00 0.00 0.00 55 1010.6